Weather History for KMYV - June, 2014

Change the Weather History Date:

Tuesday, June 10, 2014

  Actual Average Record
Temperature  
Mean Temperature 84 °F -  
Max Temperature 105 °F 88 °F 105 °F (2014)
Min Temperature 64 °F 58 °F 47 °F (1972)
Cooling Degree Days 19    
Growing Degree Days 34 (Base 50)    
Moisture  
Dew Point 49 °F    
Average Humidity 36    
Maximum Humidity 63    
Minimum Humidity 11    
Precipitation  
Precipitation 0.00 in - - ()
Sea Level Pressure  
Sea Level Pressure 29.65 in    
Wind  
Wind Speed 7 mph (NNW)    
Max Wind Speed 16 mph    
Max Gust Speed 25 mph    
Visibility 10 miles    
Events      
Averages and records for this station are not official NWS values.
T = Trace of Precipitation, MM = Missing Value Source: NWS Daily Summary

Daily Weather History Graph

Daily Weather History Graph

Search for Another Location

Airport or City:

Trip Planner

Search our weather history database for the weather conditions in past years. The results will help you decide how hot, cold, wet, or windy it might be!

Date:

Astronomy

Jun. 10, 2014 Rise Set
Actual Time 5:39 AM PDT 8:31 PM PDT
Civil Twilight 5:07 AM PDT 9:03 PM PDT
Nautical Twilight 4:27 AM PDT 9:44 PM PDT
Astronomical Twilight 3:41 AM PDT 10:30 PM PDT
Moon 6:03 PM PDT (6/10) 3:48 AM PDT (6/10)
Length of Visible Light 15h 56m
Length of Day
14h 51m
Waxing Gibbous, 93% of the Moon is Illuminated
Jun 10
Waxing Gibbous
Jun 12
Full
Jun 19
Last Quarter
Jun 27
New
Jul 5
First Quarter

Hourly Weather History & Observations

Time (PDT) Temp. Dew Point Humidity Pressure Visibility Wind Dir Wind Speed Gust Speed Precip Events Conditions
12:53 AM 78.1 °F 46.9 °F 33% 29.64 in 10.0 mi ENE 5.8 mph - N/A   Clear
1:53 AM 72.0 °F 48.0 °F 43% 29.65 in 10.0 mi NNW 3.5 mph - N/A   Clear
2:53 AM 71.1 °F 50.0 °F 47% 29.65 in 10.0 mi SSE 4.6 mph - N/A   Clear
3:53 AM 69.1 °F 51.1 °F 53% 29.66 in 10.0 mi NNW 3.5 mph - N/A   Clear
4:53 AM 66.9 °F 51.1 °F 57% 29.67 in 10.0 mi Calm Calm - N/A   Clear
5:53 AM 64.9 °F 51.1 °F 61% 29.68 in 10.0 mi Calm Calm - N/A   Clear
6:53 AM 72.0 °F 55.0 °F 55% 29.68 in 10.0 mi Calm Calm - N/A   Clear
8:53 AM 82.9 °F 52.0 °F 34% 29.70 in 10.0 mi NNW 8.1 mph - N/A   Clear
10:53 AM 91.0 °F 48.9 °F 23% 29.69 in 10.0 mi NNW 16.1 mph - N/A   Clear
12:53 PM 98.1 °F 46.0 °F 17% 29.68 in 10.0 mi NNW 13.8 mph 25.3 mph N/A   Clear
2:53 PM 102.0 °F 45.0 °F 14% 29.65 in 10.0 mi North 15.0 mph - N/A   Clear
3:53 PM 102.9 °F 44.1 °F 14% 29.64 in 10.0 mi NW 12.7 mph - N/A   Clear
4:53 PM 104.0 °F 39.9 °F 11% 29.62 in 10.0 mi NNW 9.2 mph - N/A   Clear
5:53 PM 104.0 °F 39.0 °F 11% 29.60 in 10.0 mi North 6.9 mph - N/A   Clear
6:53 PM 100.9 °F 39.0 °F 12% 29.60 in 10.0 mi NNW 5.8 mph - N/A   Clear
8:53 PM 91.0 °F 51.1 °F 25% 29.61 in 10.0 mi Calm Calm - N/A   Clear
9:53 PM 78.1 °F 62.1 °F 58% 29.65 in 10.0 mi SSE 16.1 mph - N/A   Clear
10:53 PM 73.9 °F 57.0 °F 55% 29.68 in 10.0 mi SSE 16.1 mph - N/A   Clear
11:53 PM 69.1 °F 55.9 °F 63% 29.69 in 10.0 mi SSE 12.7 mph - N/A   Clear